Retour au catalogue

STARLINK-37142

ActifCommunicationsSSO
NORAD 68296·PAYLOAD·🇺🇸 United States

Lancé Mar 20, 2026 depuis Vandenberg Space Force Base

Loading…

Prochains Passages (prochaines 24 heures)

TLE

FraisSource: CelesTrak SupGP

Époque: Sep 15, 2026, 03:20 UTC

1 68296C 26057C   26258.13937500  .00003149  00000+0  97750-4 0  2588
2 68296  97.2850  23.6654 0001155  89.5742 332.6129 15.33439036    11

Suivez STARLINK-37142 en temps réel avec AllMySat

Download on the App Store